Starlink 5519

operational
NORAD ID: 57223 Int'l Des: 2023-094 Owner: SPXS Country: US Constellation: starlink
LEOCIRCULAR

Starlink 5519について

説明を読み込み中...

リアルタイム位置

3D地球を読み込み中...

次回通過

高度履歴

Altitude vs Time

uPlot chart will show altitude changes over time

軌道要素

1 57223U 23094F 25349.44225607 .00001241 00000-0 10689-3 0 9995
2 57223 43.0029 128.3917 0001281 271.7200 88.3496 15.02537315134447
Epoch: Dec 15, 2025 • Age: 39 hours

現在のステータス

高度 558.9 km
速度 7.59 km/s
衛星直下点 18.70°N, 168.78°E
打ち上げ日 Jul 7, 2023
運用期間 2.4 years
タイプ internet

技術仕様

分類 Payload
質量 305.00 kg
乾燥質量 290.00 kg
総質量 305.00 kg
長さ 0.20 m
直径 2.80 m
スパン 9.00 m
形状 Box + pan
製造者 SPXS
バスタイプ Starlink
フェーズステータス In Orbit
所有者/国 SPXS/US

大規模コンステレーション

Loading constellations...